TimeCST,TemperatureF,Dew PointF,Humidity,Sea Level PressureIn,VisibilityMPH,Wind Direction,Wind SpeedMPH,Gust SpeedMPH,PrecipitationIn,Events,Conditions,WindDirDegrees,DateUTC
6:00 AM,72,69,88,29.88,12,ENE,3.5,,,,Scattered Clouds,70,2013-11-24 12:00:00
6:00 AM,71.6,69.8,94,29.84,6.2,ENE,3.5,-,N/A,,Scattered Clouds,70,2013-11-24 12:00:00
7:00 AM,75.2,69.8,83,29.86,6.2,South,3.5,-,N/A,,Scattered Clouds,170,2013-11-24 13:00:00
8:00 AM,78.8,69.8,74,29.88,6.2,NW,3.5,-,N/A,,Scattered Clouds,320,2013-11-24 14:00:00
9:00 AM,83,69,54,29.92,12,SW,3.5,,,,Scattered Clouds,220,2013-11-24 15:00:00
9:00 AM,82.4,69.8,66,29.89,6.2,SW,3.5,-,N/A,,Scattered Clouds,220,2013-11-24 15:00:00
10:00 AM,84.2,73.4,70,29.88,6.2,NW,5.8,-,N/A,,Scattered Clouds,320,2013-11-24 16:00:00
11:00 AM,86.0,71.6,62,29.86,6.2,NE,5.8,-,N/A,,Mostly Cloudy,40,2013-11-24 17:00:00
12:00 PM,88,68,42,29.86,12,NNE,9.2,,,,Scattered Clouds,30,2013-11-24 18:00:00
12:00 PM,87.8,68.0,52,29.82,6.2,NNE,9.2,-,N/A,,Mostly Cloudy,30,2013-11-24 18:00:00
1:00 PM,87.8,69.8,55,29.80,6.2,East,15.0,-,N/A,,Scattered Clouds,90,2013-11-24 19:00:00
2:00 PM,87.8,69.8,55,29.78,6.2,East,15.0,-,N/A,,Mostly Cloudy,90,2013-11-24 20:00:00
3:00 PM,88,69,44,29.80,12,East,15.0,,,,Scattered Clouds,100,2013-11-24 21:00:00
3:00 PM,87.8,69.8,55,29.77,6.2,East,3.5,-,N/A,,Mostly Cloudy,100,2013-11-24 21:00:00
4:00 PM,84.2,68.0,58,29.78,6.2,East,9.2,-,N/A,,Mostly Cloudy,80,2013-11-24 22:00:00
5:00 PM,84.2,66.2,55,29.79,6.2,East,10.4,-,N/A,,Mostly Cloudy,100,2013-11-24 23:00:00
6:00 PM,81,69,58,29.85,12,NE,6.9,,,,Scattered Clouds,40,2013-11-25 00:00:00
6:00 PM,80.6,68.0,65,29.82,6.2,NE,6.9,-,N/A,,Scattered Clouds,40,2013-11-25 00:00:00
7:00 PM,78.8,68.0,69,29.84,-9999.0,SE,6.9,-,N/A,,Clear,130,2013-11-25 01:00:00
8:00 PM,78.8,69.8,74,29.86,-9999.0,ESE,5.8,-,N/A,,Clear,120,2013-11-25 02:00:00